Content
SEND FEEDBACK

Daily
Averages
Monthly
Summary
United States of America

COLE CAMP, MISSOURI


Home > North America > United States > Missouri
Elevation: 980 feet     Latitude: 38 22N     Longitude: 093 08W

WEATHER
 
SELECT A DAY
Number of Records: 190,880;   Date Range: 7/1/96 - 12/16/14
 
SHARE

PRINT THIS DATA

[ ← Previous Day ]
WEATHER ALMANAC - JANUARY 7, 2013
[ Next Day → ]
[ °C ]   °F
Weather ElementAverageHighLow
Temperature37.2 °F50 °F (2:53 pm)27 °F (1:53 am)
Dewpoint22.9 °F26.1 °F (2:53 pm)18 °F (6:53 am)
Humidity57.8 %75 % (1:53 am)39 % (2:53 pm)
Barometer30.23 in30.35 in (1:53 am)30.11 in (10:53 pm)
Wind Speed11.6 mph17.3 mph (11:53 am)
Wind Gust25.3 mph (1:53 pm)
Weather ElementAverage
Visibility10 mi
Wind DirectionSSW (189.1 °)

Weather ElementTotal
Precipitation---
Heating Degree Days26.5 (Base 65)
Averaged from 22 records on January 7, 2013
WEATHER CONDITIONS BREAKOUT
WIND DIRECTION BREAKOUT
WEATHER BY HOUR - JANUARY 7, 2013
[ °C ]   °F
Local TimeTemperatureDewpointHumidityBarometerVisibilityWind DirectionWind SpeedGust SpeedPrecipitationEventsConditions
1:53 AM27.0 °F19.9 °F75 %30.35 in10.0 miSouth (180°)10.4 mphClear
2:53 AM27.0 °F19.9 °F75 %30.35 in10.0 miSouth (180°)10.4 mphClear
3:53 AM27.0 °F19.0 °F72 %30.33 in10.0 miSouth (180°)9.2 mphClear
4:53 AM27.0 °F19.0 °F72 %30.30 in10.0 miSouth (170°)10.4 mphClear
5:53 AM27.0 °F19.0 °F72 %30.30 in10.0 miSouth (180°)9.2 mphClear
6:53 AM27.0 °F18.0 °F69 %30.32 in10.0 miSouth (190°)6.9 mphClear
7:53 AM27.0 °F19.0 °F72 %30.32 in10.0 miSouth (180°)9.2 mphClear
8:53 AM33.1 °F21.9 °F64 %30.31 in10.0 miSouth (190°)12.7 mphClear
9:53 AM37.9 °F23.0 °F55 %30.31 in10.0 miSouth (190°)12.7 mphClear
10:53 AM42.1 °F24.1 °F49 %30.30 in10.0 miSSW (200°)11.5 mph19.6 mphClear
11:53 AM44.1 °F25.0 °F47 %30.25 in10.0 miSW (220°)17.3 mphClear
1:53 PM46.9 °F25.0 °F42 %30.18 in10.0 miSSW (200°)17.3 mph25.3 mphClear
2:53 PM50.0 °F26.1 °F39 %30.16 in10.0 miSSW (200°)13.8 mph19.6 mphClear
3:53 PM50.0 °F26.1 °F39 %30.16 in10.0 miSSW (210°)8.1 mphClear
4:53 PM46.0 °F24.1 °F42 %30.14 in10.0 miSouth (180°)11.5 mphClear
5:53 PM43.0 °F24.1 °F47 %30.15 in10.0 miSouth (190°)9.2 mphClear
6:53 PM39.0 °F24.1 °F55 %30.14 in10.0 miSouth (180°)9.2 mphClear
7:53 PM37.9 °F26.1 °F62 %30.13 in10.0 miSouth (180°)10.4 mphClear
8:53 PM39.9 °F26.1 °F58 %30.12 in10.0 miSouth (190°)12.7 mphClear
9:53 PM41.0 °F25.0 °F53 %30.12 in10.0 miSouth (190°)15.0 mphClear
10:53 PM39.9 °F25.0 °F55 %30.11 in10.0 miSouth (190°)16.1 mph23.0 mphClear
11:53 PM39.0 °F25.0 °F57 %30.11 in10.0 miSouth (190°)11.5 mphClear
Hourly data recorded from KDMO, located miles away from Cole Camp, Missouri







STORIES FROM OUR PARTNERS